Home > Weather > Porto > Past weeks

Flag for Portugal Past Weather in Porto, Portugal — Yesterday and Last 2 Weeks

Now
57 °F

Clear.


Feels Like: 57 °F
Forecast: 60 / 81 °F
Wind: 5 mph from North

Location: Porto / Pedras Rubras

Current Time: Jul 2, 2016 at 6:50:42 AM

Latest Report: Jul 2, 2016 at 6:00 AM


Visibility: 10 mi

Pressure: 30.15 "Hg

Humidity: 94%

Dew Point: 55 °F

Location of PortoLocation

Past Weather in Porto — Graph

°F

Porto Temperature Yesterday

Maximum temperature yesterday: 68 °F (at 1:00 PM)
Minimum temperature yesterday: 59 °F (at 12:30 AM)
Average temperature yesterday: 63 °F

High & Low Weather Summary for the Past Weeks

 TemperatureHumidityPressure
High82 °F (Jun 27, 12:30 PM)100% (Jun 17, 5:00 AM)30.36 "Hg (Jun 17, 5:00 AM)
Low52 °F (Jun 18, 5:30 AM)30% (Jun 27, 12:30 PM)29.95 "Hg (Jun 22, 7:00 PM)
Average65 °F82%30.12 "Hg
* Reported Jun 17 5:00 AM — Jul 2 5:30 AM, Porto, Weather by CustomWeather, © 2016

Note: Actual official high and low records may vary slightly from our data, if they occured in-between our weather recording intervals... More about our weather records

Advertising

Porto Weather History for the Previous 24 Hours

Scroll right to see more
 ConditionsComfort  
Time TempWeatherWind HumidityBarometerVisibility
5:30 AM
Sat, Jul 2
57 °FClear.7 mph94%30.15 "Hg10 mi
5:00 AM57 °FClear.7 mph100%30.15 "Hg10 mi
4:30 AM57 °FClear.2 mph100%30.15 "Hg10 mi
4:00 AM57 °FClear.No wind100%30.15 "Hg10 mi
3:30 AM57 °FClear.2 mph100%30.15 "Hg10 mi
3:00 AM57 °FClear.5 mph100%30.15 "Hg10 mi
2:30 AM57 °FClear.7 mph100%30.15 "Hg10 mi
2:00 AM59 °FClear.6 mph94%30.15 "Hg10 mi
1:30 AM57 °FClear.7 mph100%30.15 "Hg10 mi
1:00 AM59 °FClear.6 mph94%30.15 "Hg10 mi
12:30 AM59 °FClear.6 mph94%30.15 "Hg10 mi
12:00 AM59 °FClear.8 mph94%30.15 "Hg10 mi
11:30 PM
Fri, Jul 1
59 °FClear.10 mph100%30.18 "Hg10 mi
11:00 PM61 °FClear.10 mph88%30.18 "Hg10 mi
10:30 PM61 °FClear.13 mph88%30.15 "Hg10 mi
10:00 PM61 °FSunny.13 mph88%30.15 "Hg10 mi
9:30 PM61 °FPassing clouds.14 mph88%30.15 "HgN/A
9:00 PM63 °FSunny.13 mph88%30.15 "Hg10 mi
8:30 PM63 °FPassing clouds.13 mph88%30.15 "HgN/A
8:00 PM63 °FPassing clouds.13 mph88%30.15 "HgN/A
7:30 PM64 °FPassing clouds.15 mph83%30.15 "HgN/A
7:00 PM64 °FPassing clouds.17 mph83%30.15 "HgN/A
6:30 PM66 °FSunny.16 mph73%30.12 "Hg10 mi
6:00 PM66 °FPassing clouds.15 mph73%30.15 "HgN/A
5:30 PM68 °FSunny.17 mph73%30.15 "Hg10 mi
5:00 PM68 °FSunny.15 mph73%30.15 "Hg10 mi
4:30 PM66 °FPassing clouds.15 mph83%30.15 "HgN/A
4:00 PM66 °FPassing clouds.16 mph83%30.15 "HgN/A
3:30 PM66 °FPassing clouds.15 mph83%30.15 "HgN/A
3:00 PM68 °FPassing clouds.12 mph78%30.15 "HgN/A
2:30 PM66 °FPassing clouds.13 mph83%30.15 "HgN/A
2:00 PM68 °FPassing clouds.13 mph78%30.15 "HgN/A
1:30 PM68 °FPartly sunny.12 mph78%30.15 "HgN/A
1:00 PM68 °FPartly sunny.10 mph78%30.15 "HgN/A
12:30 PM66 °FPartly sunny.10 mph83%30.15 "HgN/A
12:00 PM66 °FPartly sunny.10 mph83%30.15 "HgN/A
11:30 AM66 °FPartly sunny.12 mph83%30.15 "HgN/A
11:00 AM64 °FPartly sunny.10 mph88%30.15 "HgN/A
10:30 AM64 °FPartly sunny.7 mph88%30.15 "HgN/A
10:00 AM63 °FPartly sunny.6 mph94%30.15 "HgN/A
9:30 AM64 °FBroken clouds.2 mph88%30.15 "HgN/A
9:00 AM61 °FPartly sunny.5 mph100%30.12 "HgN/A
8:30 AM61 °FPartly sunny.3 mph100%30.12 "Hg5 mi
8:00 AM61 °FFog.2 mph100%30.12 "Hg4 mi
7:30 AM59 °FFog.2 mph100%30.12 "Hg4 mi
7:00 AM59 °FPartly cloudy.2 mph100%30.12 "Hg4 mi
6:30 AM59 °FPassing clouds.No wind100%30.12 "Hg4 mi
6:00 AM59 °FFog.5 mph100%30.09 "Hg3 mi
Weather by CustomWeather, © 2016

See weather overviewHow to use our weather pages